Starlink 31980

operational
NORAD ID: 59962 Int'l Des: 2024-107 Owner: SPXS Country: US Constellation: starlink
LEOCIRCULAR

Starlink 31980について

説明を読み込み中...

リアルタイム位置

3D地球を読み込み中...

次回通過

高度履歴

Altitude vs Time

uPlot chart will show altitude changes over time

軌道要素

1 59962U 24107T 25307.68805260 .00001607 00000-0 66361-4 0 9997
2 59962 53.1609 290.8932 0001446 90.3336 269.7831 15.30204607 80506
Epoch: Nov 3, 2025 • Age: 12 hours

現在のステータス

高度 476.4 km
速度 7.63 km/s
衛星直下点 30.72°N, 22.74°W
打ち上げ日 Jun 5, 2024
運用期間 1.4 years
タイプ internet

技術仕様

分類 Payload
質量 730.00 kg
乾燥質量 700.00 kg
総質量 730.00 kg
長さ 0.30 m
直径 4.10 m
スパン 29.00 m
形状 Box + pan
製造者 SPXS
バスタイプ Starlink V2M
フェーズステータス In Orbit
所有者/国 SPXS/US

大規模コンステレーション

Loading constellations...